[[{"header":{"parameterUnit":"m.s-1","parameterCategory":1,"la1":30.2992,"la2":30.254,"lo1":-89.0895,"lo2":-89.0443,"dy":0.0025,"dx":0.0025,"nx":19,"ny":19,"refTime":"2026-03-28T09:00:00:Z","depth":0,"parameterNumber":2,"parameterNumberName":"U-component_of_WINDS"},"data":[0,0,0,-1.6114,-1.6115,-1.615,-1.615,-1.62,-1.62,0,0,0,0,0,0,0,0,0,0,0,-1.6107,-1.6108,-1.6114,-1.6115,-1.615,-1.615,-1.62,-1.62,0,0,0,0,0,0,0,0,0,0,0,-1.6107,-1.6108,-1.6108,-1.6115,-1.615,-1.615,-1.62,-1.6171,0,0,0,0,0,0,0,0,0,0,-1.6136,-1.6134,-1.6107,-1.6108,-1.6115,-1.615,-1.615,-1.617,-1.6173,-1.6187,0,-1.62,0,-1.6201,-1.6204,-1.6204,0,0,0,-1.6112,-1.6131,-1.6137,-1.6108,-1.6115,-1.615,-1.6133,-1.6172,-1.6175,-1.6191,-1.62,-1.6202,-1.6202,-1.6204,-1.6205,-1.6292,-1.6292,0,0,-1.611,-1.6115,-1.6135,-1.614,-1.6135,-1.6132,-1.6134,-1.6174,-1.6184,-1.6201,-1.6203,-1.6203,-1.6205,-1.6205,-1.6291,-1.6292,0,0,0,-1.6106,-1.6114,-1.6119,-1.6138,-1.6144,-1.6133,-1.6136,-1.6183,-1.6184,-1.6204,-1.6203,-1.6205,-1.6206,-1.6291,-1.6292,-1.6324,0,0,0,-1.6105,-1.6112,-1.6118,-1.6122,-1.6143,-1.6164,-1.6144,-1.6181,-1.6185,-1.6203,-1.6205,-1.6206,-1.629,-1.6291,-1.6322,-1.6339,0,0,0,-1.6104,-1.6112,-1.6118,-1.6122,-1.6138,-1.6163,-1.6166,-1.6182,-1.6185,-1.6204,-1.6207,-1.629,-1.6291,-1.632,-1.6335,-1.6364,0,0,0,-1.6104,-1.6146,-1.6119,-1.6166,-1.6137,-1.6183,-1.6166,-1.6199,-1.622,-1.6205,-1.629,-1.6291,-1.6319,-1.6333,-1.6362,-1.6389,-1.6401,0,0,-1.6161,-1.6153,-1.6181,-1.6157,-1.6209,-1.6177,-1.6233,-1.6246,-1.6243,-1.6276,-1.6278,-1.6322,-1.6335,-1.6363,-1.6462,-1.6472,0,0,0,-1.6201,-1.6221,-1.6233,-1.6252,-1.6263,-1.6274,-1.6278,-1.6283,-1.631,-1.6261,-1.6339,-1.6347,-1.6363,-1.6376,-1.6384,-1.6398,-1.6297,-1.6297,-1.6297,-1.629,-1.6283,-1.6328,-1.6325,-1.6344,-1.6347,-1.6362,-1.6369,-1.6357,-1.6375,-1.6386,-1.6447,-1.6462,-1.6468,-1.6482,-1.6398,-1.6399,-1.6399,-1.6399,-1.6373,-1.6401,-1.6382,-1.642,-1.6412,-1.6443,-1.6447,-1.6437,-1.6465,-1.6439,-1.6452,-1.6425,-1.6478,-1.6491,-1.6401,-1.6401,-1.64,-1.64,-1.64,-1.6432,-1.6444,-1.6449,-1.6476,-1.6497,-1.6492,-1.652,-1.6511,-1.6504,-1.6517,-1.6527,-1.6527,-1.6526,-1.6522,-1.6523,-1.6523,-1.6523,-1.6523,-1.6523,-1.6492,-1.6496,-1.652,-1.6535,-1.6546,-1.6559,-1.6562,-1.6573,-1.6582,-1.6574,-1.6574,-1.656,-1.6484,-1.6466,-1.6527,-1.6526,-1.6526,-1.6525,-1.6525,-1.6581,-1.6559,-1.6597,-1.6608,-1.6624,-1.6646,-1.6634,-1.6656,-1.6664,-1.6678,-1.666,-1.6605,-1.6597,-1.6591,-1.6576,-1.6661,-1.6661,-1.6661,-1.6661,-1.6631,-1.6626,-1.6662,-1.6681,-1.6698,-1.6691,-1.6733,-1.6735,-1.6734,-1.6738,-1.6724,-1.6703,-1.6696,-1.6692,-1.6684,-1.667,-1.6777,-1.6777,-1.6777,-1.6686,-1.6682,-1.672,-1.6719,-1.673,-1.674,-1.678,-1.6801,-1.6795,-1.6782,-1.6741,-1.6736,-1.6702,-1.6691,-1.6678,-1.6665,-1.6639,0,0]},{"header":{"parameterUnit":"m.s-1","parameterCategory":1,"la1":30.2992,"la2":30.254,"lo1":-89.0895,"lo2":-89.0443,"dy":0.0025,"dx":0.0025,"nx":19,"ny":19,"refTime":"2026-03-28T09:00:00:Z","depth":0,"parameterNumber":3,"parameterNumberName":"V-component_of_WINDS"},"data":[0,0,0,-5.9892,-5.9894,-5.9964,-5.9965,-6.0058,-6.0059,0,0,0,0,0,0,0,0,0,0,0,-5.9875,-5.9876,-5.9892,-5.9894,-5.9964,-5.9965,-6.0058,-6.0059,0,0,0,0,0,0,0,0,0,0,0,-5.9874,-5.9875,-5.9876,-5.9894,-5.9964,-5.9965,-6.0058,-6.0003,0,0,0,0,0,0,0,0,0,0,-5.9933,-5.9922,-5.9875,-5.9876,-5.9894,-5.9964,-5.9965,-6.0,-6.0006,-6.0028,0,-6.0051,0,-6.0057,-6.0066,-6.0066,0,0,0,-5.989,-5.9916,-5.9933,-5.9877,-5.9895,-5.9964,-5.9931,-6.0003,-6.001,-6.0036,-6.0052,-6.0055,-6.0058,-6.0066,-6.0067,-6.0213,-6.0214,0,0,-5.9886,-5.9889,-5.9928,-5.9937,-5.9929,-5.9929,-5.9934,-6.0007,-6.0024,-6.0052,-6.0057,-6.006,-6.0067,-6.0068,-6.0213,-6.0214,0,0,0,-5.9877,-5.9886,-5.99,-5.9934,-5.9947,-5.9931,-5.9937,-6.002,-6.0025,-6.0058,-6.0061,-6.0068,-6.0069,-6.0212,-6.0213,-6.0261,0,0,0,-5.9875,-5.9881,-5.9899,-5.9901,-5.9945,-5.9985,-5.9948,-6.002,-6.0028,-6.006,-6.0068,-6.007,-6.0211,-6.0212,-6.0258,-6.0283,0,0,0,-5.9869,-5.988,-5.9892,-5.9901,-5.9932,-5.9983,-5.9992,-6.0021,-6.003,-6.0066,-6.007,-6.021,-6.0212,-6.0255,-6.0278,-6.0324,0,0,0,-5.9862,-5.9931,-5.9893,-5.9971,-5.9932,-6.0013,-5.9992,-6.0051,-6.0088,-6.0068,-6.0211,-6.0213,-6.0254,-6.0275,-6.0321,-6.0364,-6.0383,0,0,-5.995,-5.9941,-5.9987,-5.9955,-6.0045,-6.0002,-6.0098,-6.0127,-6.0125,-6.0184,-6.0187,-6.0259,-6.0277,-6.0323,-6.0482,-6.0497,0,0,0,-6.0016,-6.0049,-6.0072,-6.0109,-6.0135,-6.016,-6.0175,-6.0186,-6.0236,-6.0157,-6.0287,-6.0298,-6.0325,-6.0345,-6.0358,-6.0381,-6.0222,-6.0222,-6.0222,-6.0143,-6.0142,-6.0218,-6.0226,-6.0262,-6.0279,-6.0307,-6.0325,-6.0309,-6.034,-6.0358,-6.0455,-6.0479,-6.0488,-6.0513,-6.0379,-6.038,-6.038,-6.038,-6.0273,-6.032,-6.0303,-6.037,-6.0368,-6.0423,-6.0442,-6.043,-6.0481,-6.0441,-6.0464,-6.0421,-6.0505,-6.0526,-6.0383,-6.0383,-6.0382,-6.0382,-6.0382,-6.0357,-6.038,-6.0395,-6.0451,-6.0494,-6.0498,-6.055,-6.0544,-6.0539,-6.0562,-6.0581,-6.058,-6.058,-6.0572,-6.0572,-6.0572,-6.0573,-6.0573,-6.0573,-6.0439,-6.0455,-6.05,-6.0537,-6.0562,-6.0594,-6.0613,-6.0636,-6.066,-6.0652,-6.0652,-6.0635,-6.0513,-6.0484,-6.0578,-6.0577,-6.0577,-6.0576,-6.0576,-6.0573,-6.0543,-6.0613,-6.0639,-6.0683,-6.0727,-6.072,-6.0769,-6.0787,-6.0813,-6.0791,-6.0702,-6.0692,-6.0682,-6.0657,-6.0791,-6.0791,-6.0791,-6.0791,-6.0645,-6.064,-6.0713,-6.0755,-6.0794,-6.0797,-6.0876,-6.0892,-6.0903,-6.0914,-6.0894,-6.086,-6.085,-6.0846,-6.0832,-6.0809,-6.0979,-6.0979,-6.0979,-6.0728,-6.0728,-6.0797,-6.0811,-6.0846,-6.0875,-6.095,-6.0997,-6.1002,-6.0987,-6.0923,-6.0915,-6.0861,-6.0844,-6.0827,-6.0806,-6.0764,0,0]}]]